{"data":{"norad_id":56743,"epoch":"2026-05-25T04:16:36.801408Z","epoch_age_seconds":55601,"freshness":"FRESH","line1":"1 56743U 23072A   26145.17820372  .00006427  00000+0  24184-3 0  9997","line2":"2 56743  97.5268 341.9597 0007353 100.3953 259.8115 15.27457808166080","mean_motion":15.27457808,"eccentricity":0.0007353,"inclination_deg":97.5268,"raan_deg":341.9597,"arg_perigee_deg":100.3953,"mean_anomaly_deg":259.8115,"bstar":0.00024184,"rev_number":16608,"period_min":94.27428976814,"perigee_km":478.36970804639,"apogee_km":488.46030642823,"semimajor_km":6861.5520072373,"source":"CELESTRAK","updated_at":"2026-05-25T13:37:59.659812Z"}}